Volver al catálogo

IRIDIUM 33 DEB

ActivoPO
NORAD 35929·DEBRIS·🇺🇸 United States

Lanzado Sep 14, 1997 desde Baikonur Cosmodrome

Loading…

Próximos Pases (próximas 24 horas)

TLE

ActualizadoSource: Space-Track

Época: Sep 14, 2026, 12:40 UTC

1 35929U 97051UN  26257.52793499  .00049136  00000-0  19234-2 0  9994
2 35929  86.3422 179.7792 0015030  79.2047 281.0890 15.25507962919521

Sigue IRIDIUM 33 DEB en tiempo real con AllMySat

Download on the App Store